Weather History for Newberry, SC

Change the Weather History Date:

Tuesday, June 18, 2013

  Actual Average (KFDW) Record (KFDW)
Temperature  
Mean Temperature 78 °F -  
Max Temperature 86 °F 86 °F 95 °F (2011)
Min Temperature 69 °F 65 °F 64 °F (2012)
Cooling Degree Days 14    
Growing Degree Days 28 (Base 50)    
Moisture  
Dew Point 72 °F    
Average Humidity 91    
Maximum Humidity 100    
Minimum Humidity 62    
Precipitation  
Precipitation 0.03 in - - ()
Sea Level Pressure  
Sea Level Pressure 29.94 in    
Wind  
Wind Speed 7 mph (SW)    
Max Wind Speed 17 mph    
Max Gust Speed 26 mph    
Visibility 10 miles    
Events Rain , Thunderstorm    
Averages and records for this station are not official NWS values.
T = Trace of Precipitation, MM = Missing Value Source: NWS Daily Summary

Daily Weather History Graph

Daily Weather History Graph

Search for Another Location

Airport:

Trip Planner

Search our weather history database for the weather conditions in past years. The results will help you decide how hot, cold, wet, or windy it might be!

Date:

Astronomy

Jun. 18, 2013 Rise Set
Actual Time 6:14 AM EDT 8:41 PM EDT
Civil Twilight 5:45 AM EDT 9:10 PM EDT
Nautical Twilight 5:08 AM EDT 9:46 PM EDT
Astronomical Twilight 4:29 AM EDT 10:26 PM EDT
Moon 3:33 PM EDT (6/18) 2:10 AM EDT (6/18)
Length of Visible Light 15h 25m
Length of Day
14h 26m
Waxing Gibbous, 70% of the Moon is Illuminated
Jun 18
Waxing Gibbous
Jun 23
Full
Jun 30
Last Quarter
Jul 8
New
Jul 15
First Quarter

Hourly Weather History & Observations

Time (EDT) Temp. Heat Index Dew Point Humidity Pressure Visibility Wind Dir Wind Speed Gust Speed Precip Events Conditions
12:15 AM 71.6 °F - 71.6 °F 100% 30.02 in 10.0 mi South 4.6 mph - N/A   Clear
12:35 AM 71.6 °F - 71.6 °F 100% 30.02 in 10.0 mi SSW 4.6 mph - N/A   Clear
12:55 AM 71.6 °F - 71.6 °F 100% 30.00 in 10.0 mi Calm Calm - N/A   Scattered Clouds
1:15 AM 71.6 °F - 71.6 °F 100% 30.00 in 10.0 mi SSW 3.5 mph - N/A   Overcast
1:35 AM 71.6 °F - 71.6 °F 100% 29.99 in 10.0 mi SSW 4.6 mph - N/A   Mostly Cloudy
1:55 AM 71.6 °F - 71.6 °F 100% 29.98 in 10.0 mi South 3.5 mph - N/A   Mostly Cloudy
2:15 AM 71.6 °F - 71.6 °F 100% 29.97 in 10.0 mi SSW 3.5 mph - N/A   Scattered Clouds
2:35 AM 71.6 °F - 71.6 °F 100% 29.96 in 10.0 mi SW 4.6 mph - N/A   Clear
2:55 AM 71.6 °F - 71.6 °F 100% 29.96 in 7.0 mi SSW 4.6 mph - N/A   Mostly Cloudy
3:15 AM 71.6 °F - 71.6 °F 100% 29.95 in 10.0 mi SSW 5.8 mph - N/A   Overcast
3:35 AM 71.6 °F - 71.6 °F 100% 29.95 in 10.0 mi SW 6.9 mph - N/A   Overcast
3:55 AM 71.6 °F - 71.6 °F 100% 29.95 in 10.0 mi SW 6.9 mph - N/A   Overcast
4:15 AM 71.6 °F - 71.6 °F 100% 29.95 in 10.0 mi SW 6.9 mph - N/A   Overcast
4:35 AM 71.6 °F - 71.6 °F 100% 29.95 in 10.0 mi SW 6.9 mph - N/A   Overcast
4:55 AM 71.6 °F - 71.6 °F 100% 29.94 in 10.0 mi SW 4.6 mph - N/A   Overcast
5:15 AM 71.6 °F - 71.6 °F 100% 29.95 in 10.0 mi SW 9.2 mph - N/A   Overcast
5:35 AM 71.6 °F - 71.6 °F 100% 29.95 in 10.0 mi SW 5.8 mph - N/A   Overcast
5:55 AM 71.6 °F - 71.6 °F 100% 29.96 in 10.0 mi SSW 5.8 mph - N/A   Overcast
6:15 AM 71.6 °F - 71.6 °F 100% 29.97 in 10.0 mi SW 6.9 mph - N/A   Overcast
6:35 AM 71.6 °F - 71.6 °F 100% 29.97 in 10.0 mi SW 4.6 mph - N/A   Overcast
6:55 AM 71.6 °F - 71.6 °F 100% 29.97 in 10.0 mi SW 6.9 mph - N/A   Overcast
7:15 AM 71.6 °F - 71.6 °F 100% 29.98 in 10.0 mi WSW 5.8 mph - N/A   Overcast
7:35 AM 71.6 °F - 71.6 °F 100% 29.98 in 10.0 mi SW 8.1 mph - N/A   Overcast
7:55 AM 71.6 °F - 71.6 °F 100% 29.98 in 10.0 mi SW 9.2 mph - N/A   Overcast
8:15 AM 71.6 °F - 71.6 °F 100% 29.99 in 10.0 mi SW 8.1 mph - N/A   Overcast
8:35 AM 73.4 °F - 71.6 °F 94% 29.98 in 10.0 mi SW 9.2 mph - N/A   Overcast
8:55 AM 73.4 °F - 71.6 °F 94% 29.99 in 10.0 mi SW 9.2 mph - N/A   Mostly Cloudy
9:15 AM 75.2 °F - 71.6 °F 89% 30.00 in 10.0 mi WSW 9.2 mph - N/A   Scattered Clouds
9:35 AM 75.2 °F - 69.8 °F 83% 30.01 in 10.0 mi SW 11.5 mph 19.6 mph N/A   Mostly Cloudy
9:55 AM 75.2 °F - 69.8 °F 83% 29.99 in 10.0 mi WSW 13.8 mph 18.4 mph N/A   Mostly Cloudy
10:15 AM 73.4 °F - 71.6 °F 94% 29.98 in 10.0 mi SW 8.1 mph - 0.01 in Rain Light Rain
10:35 AM 73.4 °F - 71.6 °F 94% 29.98 in 10.0 mi WSW 8.1 mph - 0.01 in   Light Drizzle
10:55 AM 73.4 °F - 71.6 °F 94% 29.99 in 10.0 mi SW 10.4 mph - 0.01 in   Clear
11:15 AM 73.4 °F - 71.6 °F 94% 29.99 in 10.0 mi WSW 10.4 mph - N/A Rain Rain
11:35 AM 73.4 °F - 71.6 °F 94% 29.98 in 10.0 mi SW 8.1 mph - N/A   Scattered Clouds
11:55 AM 73.4 °F - 73.4 °F 100% 29.97 in 10.0 mi SW 9.2 mph - N/A Rain Light Rain
12:15 PM 75.2 °F - 73.4 °F 94% 29.97 in 10.0 mi SW 10.4 mph - N/A   Mostly Cloudy
12:35 PM 75.2 °F - 73.4 °F 94% 29.97 in 10.0 mi SW 5.8 mph - N/A   Overcast
12:55 PM 78.8 °F - 73.4 °F 83% 29.95 in 10.0 mi SSW 9.2 mph - N/A   Overcast
1:15 PM 78.8 °F - 73.4 °F 83% 29.93 in 10.0 mi SW 9.2 mph - N/A   Mostly Cloudy
1:35 PM 80.6 °F 84.6 °F 71.6 °F 74% 29.93 in 10.0 mi SSW 12.7 mph 18.4 mph N/A   Mostly Cloudy
1:55 PM 80.6 °F 84.6 °F 71.6 °F 74% 29.93 in 10.0 mi SW 17.3 mph 23.0 mph N/A   Mostly Cloudy
2:15 PM 80.6 °F 84.6 °F 71.6 °F 74% 29.92 in 10.0 mi WSW 13.8 mph - N/A   Mostly Cloudy
2:35 PM 82.4 °F 87.2 °F 71.6 °F 70% 29.91 in 10.0 mi WSW 11.5 mph - N/A   Mostly Cloudy
2:55 PM 82.4 °F 87.2 °F 71.6 °F 70% 29.92 in 10.0 mi WSW 17.3 mph 21.9 mph N/A   Mostly Cloudy
3:15 PM 84.2 °F 89.6 °F 71.6 °F 66% 29.91 in 10.0 mi WSW 11.5 mph - N/A   Overcast
3:35 PM 86.0 °F 91.8 °F 71.6 °F 62% 29.90 in 10.0 mi SW 11.5 mph 17.3 mph N/A   Mostly Cloudy
3:55 PM 84.2 °F 89.6 °F 71.6 °F 66% 29.89 in 10.0 mi SW 15.0 mph 19.6 mph N/A   Mostly Cloudy
4:15 PM 86.0 °F 91.8 °F 71.6 °F 62% 29.89 in 10.0 mi SW 11.5 mph 18.4 mph N/A   Scattered Clouds
4:35 PM 84.2 °F 89.6 °F 71.6 °F 66% 29.88 in 10.0 mi SW 11.5 mph 17.3 mph N/A   Scattered Clouds
4:55 PM 78.8 °F - 73.4 °F 83% 29.88 in 10.0 mi WSW 3.5 mph - 0.02 in Rain , Thunderstorm Light Thunderstorms and Rain
5:15 PM 77.0 °F - 77.0 °F 100% 29.88 in 10.0 mi South 6.9 mph - N/A Rain , Thunderstorm Light Thunderstorms and Rain
5:35 PM 77.0 °F - 73.4 °F 89% 29.89 in 1.0 mi SSW 6.9 mph 18.4 mph N/A Thunderstorm Mostly Cloudy
5:55 PM 78.8 °F - 73.4 °F 83% 29.88 in 10.0 mi SW 10.4 mph 16.1 mph N/A   Scattered Clouds
6:15 PM 78.8 °F - 71.6 °F 78% 29.88 in 10.0 mi SW 12.7 mph 18.4 mph N/A Rain , Thunderstorm Light Thunderstorms and Rain
6:35 PM 78.8 °F - 73.4 °F 83% 29.86 in 10.0 mi SW 9.2 mph - N/A   Clear
6:55 PM 78.8 °F - 73.4 °F 83% 29.86 in 10.0 mi SSW 13.8 mph 21.9 mph N/A   Clear
7:15 PM 78.8 °F - 73.4 °F 83% 29.87 in 10.0 mi SW 11.5 mph 16.1 mph N/A   Clear
7:35 PM 78.8 °F - 73.4 °F 83% 29.89 in 10.0 mi SW 12.7 mph 16.1 mph N/A   Clear
7:55 PM 77.0 °F - 73.4 °F 89% 29.88 in 10.0 mi SW 9.2 mph - N/A   Clear
8:15 PM 77.0 °F - 75.2 °F 94% 29.87 in 10.0 mi SW 8.1 mph - N/A   Clear
8:35 PM 77.0 °F - 77.0 °F 100% 29.89 in 10.0 mi SW 9.2 mph - N/A   Scattered Clouds
8:55 PM 77.0 °F - 73.4 °F 89% 29.89 in 10.0 mi SW 13.8 mph 23.0 mph N/A   Mostly Cloudy
9:15 PM 75.2 °F - 69.8 °F 83% 29.89 in 10.0 mi SW 16.1 mph 26.5 mph N/A   Scattered Clouds
9:35 PM 73.4 °F - 69.8 °F 88% 29.91 in 10.0 mi SW 13.8 mph 21.9 mph N/A   Clear
9:55 PM 71.6 °F - 69.8 °F 94% 29.91 in 10.0 mi WSW 8.1 mph - N/A   Clear
10:15 PM 71.6 °F - 69.8 °F 94% 29.93 in 10.0 mi WSW 5.8 mph - N/A   Scattered Clouds
10:35 PM 71.6 °F - 69.8 °F 94% 29.93 in 10.0 mi Calm Calm - N/A   Scattered Clouds
10:55 PM 71.6 °F - 69.8 °F 94% 29.93 in 10.0 mi WSW 3.5 mph - N/A   Scattered Clouds
11:15 PM 71.6 °F - 69.8 °F 94% 29.93 in 10.0 mi Calm Calm - N/A   Scattered Clouds
11:35 PM 71.6 °F - 69.8 °F 94% 29.94 in 10.0 mi Calm Calm - N/A   Clear
11:55 PM 69.8 °F - 69.8 °F 100% 29.94 in 10.0 mi SW 4.6 mph - N/A   Clear